Regional Weather Roundup
Issued by NWS

Home | Current Version | Previous Version | Graphics & Text | Print | Product List | Glossary On
Versions: 1 2 3 4 5 6 7 8 9 10 11 12 13 14 15 16 17 18 19 20 21 22 23 24 25 26 27 28 29 30 31 32 33 34 35 36 37 38 39 40 41 42 43 44 45 46 47 48 49 50
000
ASUS43 KDTX 031310
RWRMI
MICHIGAN HOURLY REGIONAL WEATHER ROUNDUP
NATIONAL WEATHER SERVICE DETROIT/PONTIAC MI
800 AM EST TUE MAR 03 2015

NOTE: "FAIR" INDICATES FEW OR NO CLOUDS BELOW 12,000 FEET WITH NO
SIGNIFICANT WEATHER AND/OR OBSTRUCTION TO VISIBILITY.

MIZ047>049-052>055-059>063-066>070-074>076-081>083-031400-
SOUTHEAST LOWER MICHIGAN

CITY           SKY/WX    TMP DP  RH WIND       PRES   REMARKS
ADRIAN         SNOW      21  17  84 SE6       30.13F VSB 1/2 WCI  13
ALMA           CLOUDY    24  17  77 S7        30.06F WCI  15
ANN ARBOR      LGT SNOW  21  17  84 SE7       30.14R VSB 3/4 WCI  12
BAD AXE        CLOUDY    21  19  93 S9        30.10F WCI  10
CARO           CLOUDY    22  17  80 S7        30.10F WCI  14
DETROIT CITY   LGT SNOW  23  16  74 S7        30.17S VSB 3/4 WCI  15
DETROIT        LGT SNOW  23  18  80 E3        30.17S
FLINT          SNOW      23  17  78 S15       30.10F VSB 1/2 WCI  10
GROSSE ILE     CLOUDY    23  16  74 SE3       30.15R
HILLSDALE      SNOW      21  18  88 SE7       30.08F VSB 1/4 WCI  12
HOWELL         SNOW      21  18  88 SE9       30.09F VSB 1/2 WCI  10

CITY           SKY/WX    TMP DP  RH WIND       PRES   REMARKS
JACKSON        SNOW      20  17  88 SE13      30.08F VSB 1/4 WCI   7
LAMBERTVILLE   LGT SNOW  25  19  80 CALM      30.14F
LANSING        SNOW      22  18  85 MISG      30.07F VSB 1/4
LAPEER         CLOUDY    23  15  70 S10       30.12S WCI  12
MASON          SNOW      21  18  86 SE12      30.07F VSB 1/2 WCI   9
MONROE         SNOW      21  18  86 SE6       30.14F VSB 1/2 WCI  14
MT. CLEMENS    LGT SNOW  21  18  86 S9        30.15S WCI  11
PONTIAC        LGT SNOW  21  16  81 SE13      30.11S VSB 3/4 WCI   9
PORT HOPE        N/A     21  16  81 S6        30.11F WCI  13
PORT HURON     CLOUDY    21  16  79 SE5       30.16S WCI  15
TRI CITIES     CLOUDY    25  15  66 S9        30.08F WCI  15
TROY           LGT SNOW  24  18  75 SE6       30.17R VSB 1   WCI  17
SAGINAW HB     CLOUDY    25  18  74 SE8       30.09F WCI  16
$$
MIZ043>046-050>051-056>058-064>065-071>073-077>080-031400-
SOUTHWEST LOWER MICHIGAN

CITY           SKY/WX    TMP DP  RH WIND       PRES   REMARKS
BATTLE CREEK   HVY SNOW  23  18  81 S12       30.06F VSB 1/4 WCI  12
BENTON HARBOR  LGT SNOW  23  20  88 SE15G22   29.97F FOG     WCI  10
BIG RAPIDS     CLOUDY    23  18  82 S9        29.99F WCI  13
COLDWATER      SNOW      21  19  89 SE8       30.07F VSB 1/2 WCI  12
FREMONT        LGT SNOW  24  18  77 S9        30.00F WCI  14
HOLLAND        SNOW      24  21  88 SE12      30.02F VSB 1/4 WCI  13
GRAND RAPIDS   SNOW      22  19  89 SE8       30.03F VSB 1/2 WCI  12
IONIA          LGT SNOW  23  20  89 S7        30.05F VSB 1   WCI  15
KALAMAZOO      SNOW      22  19  89 S9        30.06F VSB 1/2 WCI  12
LUDINGTON      CLOUDY    26  17  68 SE10G16   29.97F WCI  16
MARSHALL       LGT SNOW  21  17  85 SE7       30.06F VSB 3/4 WCI  12
MOUNT PLEASANT CLOUDY    24  17  77 SE5       30.04F WCI  18
MUSKEGON       SNOW      24  21  88 SE12      30.00F VSB 1/4 WCI  13
SOUTH HAVEN    LGT SNOW  24  21  87 SE8       29.99F VSB 1   WCI  16
$$
MIZ016>042-031400-
NORTHERN LOWER MICHIGAN

CITY           SKY/WX    TMP DP  RH WIND       PRES   REMARKS
ALPENA         LGT SNOW  14  10  84 S3        30.06F VSB 3/4
BEAVER ISLAND  LGT SNOW  21  19  91 S8G16     29.95F WCI  11
BELLAIRE       CLOUDY    22  17  79 S7        30.00F WCI  14
CADILLAC       CLOUDY    20  15  81 SE8       29.95F WCI  11
CHARLEVOIX     CLOUDY    19  17  90 SE8       30.00F WCI   9
FRANKFORT      CLOUDY    24  18  80 SE12      29.94F WCI  12
GAYLORD        LGT SNOW  17  15  92 S12       29.96F FOG     WCI   4
GRAYLING       CLOUDY    19  17  90 S5        30.00F WCI  12
HARBOR SPRINGS LGT SNOW  16  14  90 CALM      29.98F
HOUGHTON LAKE  CLOUDY    19  15  84 S7        30.01F WCI  10
MANISTEE       CLOUDY    23  16  74 SE8       29.96F WCI  14
OSCODA         LGT SNOW  21  19  93 S3        30.08F
PELLSTON       LGT SNOW  11   8  88 SE5       29.99F FOG     WCI   3
ROGERS CITY    LGT SNOW  15  13  92 S9        30.04F WCI   3
TRAVERSE CITY  CLOUDY    23  17  78 VRB6      29.96F WCI  16
$$
MIZ007>008-015-031400-
EASTERN UPPER MICHIGAN

CITY           SKY/WX    TMP DP  RH WIND       PRES   REMARKS
KINROSS        CLOUDY    10   9  92 SE8       29.97F WCI  -1
MACKINAC ISLAN LGT SNOW  14  10  85 SE10      29.97F WCI   1
NEWBERRY       LGT SNOW  15  14  94 S9        29.91F WCI   4
S. S. MARIE    FLURRIES   5   1  83 VRB5      29.98F WCI  -4
MUNISING         N/A     23  15  71 S7        29.87F WCI  15
$$
MIZ004>006-011>014-085-031400-
CENTRAL UPPER MICHIGAN

CITY           SKY/WX    TMP DP  RH WIND       PRES   REMARKS
MANISTIQUE     LGT SNOW  24  22  94 SW3       29.91F
ESCANABA       CLOUDY    21  19  93 S7        29.90F WCI  13
MENOMINEE      CLOUDY    23  18  80 S3        29.87F
SAWYER-GWINN   LGT SNOW  18  14  86 S10       29.83F WCI   6
$$
MIZ001>003-009>011-084-031400-
WESTERN UPPER MICHIGAN

CITY           SKY/WX    TMP DP  RH WIND       PRES   REMARKS
IRON MOUNTAIN  CLOUDY    19  15  84 SE7       29.82F WCI  10
HOUGHTON       LGT SNOW  18  11  74 SW5       29.75F WCI  11
COPPER HARBOR    N/A     22   8  55 W13G20    29.79F WCI  10
IRONWOOD       CLOUDY    19  16  86 S6        29.72F WCI  11
$$

ABBREVIATIONS USED IN REMARKS
   TC - TEMPERATURE IN CELSIUS
  WCI - WIND CHILL INDEX
   HX - HEAT INDEX
  VSB - VISIBILITY




USA.gov is the U.S. government's official web portal to all federal, state and local government web resources and services.